Location: Calvatone
(45.1167°N, 10.4333°E)
Time: 10:10:40
(UTC+00:00)

METEOR M2 - Pass Details

Date: 04 December 2023
Orbit: 818 x 826 km, 98.4° (Epoch: 24 February)

Event Time Altitude Azimuth Distance (km) Brightness Sun altitude
Rises 16:42:26 0° 180° (S) 3,350 ? -11.2°
Reaches altitude 10° 16:44:51 10° 186° (S) 2,421 ? -11.6°
Maximum altitude 16:50:02 49° 261° (W) 1,060 ? -12.5°
Drops below altitude 10° 16:55:16 10° 336° (NNW) 2,438 ? -13.4°
Sets 16:57:43 0° 342° (NNW) 3,375 ? -13.8°
